| time (UTC) | temp F | wind direction | speed MPH | gust MPH | rain 1hr in | rain 24hr in | rain mn in | humidity % | barometer mb |
| 20260505163014 | 51 | 360 | 5.0 | 8.0 | 0.00 | 0.37 | 0.05 | 67 | 1011.4 |
| 20260505161629 | 51 | 323 | 3.0 | 5.0 | 0.00 | 0.37 | 0.05 | 68 | 1011.4 |
| 20260505153020 | 50 | 350 | 3.0 | 7.0 | 0.00 | 0.37 | 0.05 | 67 | 1010.4 |
| 20260505151624 | 50 | 350 | 5.0 | 9.0 | 0.00 | 0.37 | 0.05 | 66 | 1010.0 |
| 20260505124528 | 49 | 251 | 0.0 | 4.0 | 0.01 | 0.35 | 0.01 | 69 | 1011.1 |
| 20260505123008 | 49 | 312 | 1.0 | 7.0 | 0.01 | 0.35 | 0.01 | 69 | 1011.0 |
| 20260505121533 | 50 | 305 | 2.0 | 6.0 | 0.01 | 0.35 | 0.01 | 69 | 1010.7 |
| 20260505120016 | 51 | 280 | 1.0 | 8.0 | 0.01 | 0.35 | 0.01 | 66 | 1010.2 |
| 20260505114552 | 51 | 269 | 2.0 | 7.0 | 0.00 | 0.34 | 0.00 | 63 | 1009.6 |
| 20260505113029 | 51 | 11 | 3.0 | 8.0 | 0.00 | 0.34 | 0.00 | 67 | 1009.2 |
| 20260505111609 | 51 | 281 | 2.0 | 5.0 | 0.00 | 0.34 | 0.00 | 69 | 1008.8 |
| 20260505101518 | 51 | 231 | 0.0 | 3.0 | 0.00 | 0.34 | 0.00 | 72 | 1008.5 |
| 20260505100053 | 51 | 332 | 2.0 | 6.0 | 0.00 | 0.34 | 0.00 | 74 | 1008.1 |
| 20260505094527 | 51 | 333 | 1.0 | 6.0 | 0.00 | 0.34 | 0.00 | 80 | 1008.0 |
| 20260505093002 | 51 | 340 | 1.0 | 4.0 | 0.00 | 0.34 | 0.00 | 83 | 1007.6 |
| 20260505091603 | 52 | 231 | 1.0 | 6.0 | 0.00 | 0.34 | 0.00 | 84 | 1007.4 |
| 20260505090037 | 53 | 1 | 1.0 | 8.0 | 0.00 | 0.34 | 0.00 | 85 | 1007.2 |
| 20260505084506 | 53 | 325 | 0.0 | 4.0 | 0.00 | 0.34 | 0.00 | 85 | 1007.2 |
| 20260505083051 | 54 | 345 | 0.0 | 2.0 | 0.00 | 0.34 | 0.00 | 85 | 1006.7 |
| 20260505081525 | 55 | 340 | 0.0 | 3.0 | 0.00 | 0.34 | 0.00 | 84 | 1006.6 |
| 20260505080107 | 56 | 4 | 0.0 | 2.0 | 0.00 | 0.34 | 0.00 | 85 | 1006.7 |
| 20260505074520 | 56 | 160 | 0.0 | 0.0 | 0.00 | 0.34 | 0.00 | 85 | 1006.9 |
| 20260505073112 | 57 | 160 | 0.0 | 2.0 | 0.00 | 0.34 | 0.00 | 85 | 1006.8 |
| 20260505071534 | 57 | 73 | 0.0 | 0.0 | 0.00 | 0.34 | 0.00 | 84 | 1006.3 |
| 20260505070009 | 57 | 73 | 0.0 | 1.0 | 0.00 | 0.34 | 0.00 | 84 | 1005.8 |
| 20260505064552 | 58 | 73 | 0.0 | 0.0 | 0.00 | 0.34 | 0.00 | 84 | 1005.8 |
| 20260505063029 | 58 | 73 | 0.0 | 0.0 | 0.00 | 0.34 | 0.00 | 84 | 1005.9 |
| 20260505061555 | 58 | 73 | 0.0 | 0.0 | 0.00 | 0.34 | 0.00 | 83 | 1005.4 |
| 20260505060028 | 58 | 73 | 0.0 | 0.0 | 0.00 | 0.34 | 0.00 | 83 | 1005.0 |
| 20260505054629 | 58 | 73 | 0.0 | 2.0 | 0.01 | 0.34 | 0.00 | 82 | 1004.7 |
| 20260505053020 | 59 | 163 | 0.0 | 1.0 | 0.30 | 0.34 | 0.00 | 81 | 1004.7 |
| 20260505051604 | 59 | 163 | 0.0 | 2.0 | 0.32 | 0.34 | 0.00 | 80 | 1004.3 |
| 20260505041556 | 67 | 231 | 1.0 | 5.0 | 0.00 | 0.02 | 0.02 | 67 | 1003.0 |
| 20260505040021 | 67 | 217 | 1.0 | 4.0 | 0.00 | 0.02 | 0.02 | 67 | 1002.1 |
| 20260505034505 | 67 | 219 | 1.0 | 4.0 | 0.00 | 0.02 | 0.02 | 68 | 1001.8 |
| 20260505033054 | 67 | 223 | 1.0 | 2.0 | 0.00 | 0.02 | 0.02 | 67 | 1001.6 |
| 20260505031612 | 67 | 223 | 1.0 | 2.0 | 0.00 | 0.02 | 0.02 | 67 | 1001.7 |
| 20260505030028 | 67 | 225 | 0.0 | 3.0 | 0.00 | 0.02 | 0.02 | 66 | 1002.0 |
| 20260505024519 | 68 | 210 | 1.0 | 2.0 | 0.00 | 0.02 | 0.02 | 64 | 1002.0 |
| 20260505023106 | 68 | 210 | 0.0 | 2.0 | 0.00 | 0.02 | 0.02 | 63 | 1001.9 |
| 20260505021526 | 69 | 216 | 1.0 | 3.0 | 0.00 | 0.02 | 0.02 | 62 | 1001.8 |
| 20260505020042 | 69 | 210 | 0.0 | 3.0 | 0.00 | 0.02 | 0.02 | 60 | 1001.7 |
| 20260505014516 | 69 | 215 | 0.0 | 3.0 | 0.00 | 0.02 | 0.02 | 60 | 1001.7 |
| 20260505013106 | 70 | 211 | 0.0 | 2.0 | 0.00 | 0.02 | 0.02 | 59 | 1001.4 |
| 20260505011534 | 70 | 140 | 0.0 | 4.0 | 0.00 | 0.02 | 0.02 | 57 | 1001.3 |
| 20260505004543 | 72 | 214 | 1.0 | 6.0 | 0.00 | 0.02 | 0.02 | 52 | 1001.2 |
| 20260505003110 | 73 | 242 | 0.0 | 3.0 | 0.00 | 0.02 | 0.02 | 52 | 1001.2 |
| 20260505001537 | 73 | 184 | 1.0 | 4.0 | 0.00 | 0.02 | 0.02 | 51 | 1001.2 |
| 20260505000024 | 74 | 203 | 1.0 | 7.0 | 0.00 | 0.02 | 0.02 | 52 | 1001.1 |
| 20260504234548 | 74 | 319 | 1.0 | 4.0 | 0.00 | 0.02 | 0.02 | 52 | 1001.1 |
| 20260504233016 | 74 | 240 | 1.0 | 4.0 | 0.00 | 0.02 | 0.02 | 51 | 1001.4 |
| 20260504231603 | 75 | 209 | 1.0 | 4.0 | 0.00 | 0.02 | 0.02 | 50 | 1001.8 |
| 20260504230025 | 75 | 211 | 2.0 | 4.0 | 0.00 | 0.02 | 0.02 | 50 | 1002.2 |
| 20260504224603 | 75 | 217 | 1.0 | 6.0 | 0.00 | 0.02 | 0.02 | 50 | 1002.3 |
| 20260504223019 | 75 | 196 | 3.0 | 7.0 | 0.00 | 0.02 | 0.02 | 48 | 1002.6 |
| 20260504221549 | 75 | 214 | 2.0 | 7.0 | 0.00 | 0.02 | 0.02 | 50 | 1002.6 |
| 20260504220012 | 75 | 300 | 3.0 | 7.0 | 0.00 | 0.02 | 0.02 | 48 | 1002.6 |
| 20260504214558 | 76 | 232 | 3.0 | 8.0 | 0.00 | 0.02 | 0.02 | 48 | 1002.7 |
| 20260504213013 | 76 | 241 | 4.0 | 12.0 | 0.00 | 0.02 | 0.02 | 48 | 1002.6 |
| 20260504211614 | 76 | 239 | 3.0 | 10.0 | 0.00 | 0.02 | 0.02 | 46 | 1002.8 |
| 20260504210033 | 76 | 229 | 3.0 | 12.0 | 0.00 | 0.02 | 0.02 | 47 | 1002.9 |
| 20260504204514 | 77 | 152 | 4.0 | 10.0 | 0.00 | 0.02 | 0.02 | 45 | 1003.0 |
| 20260504203101 | 77 | 208 | 3.0 | 10.0 | 0.00 | 0.02 | 0.02 | 45 | 1003.2 |
| 20260504201508 | 77 | 203 | 5.0 | 8.0 | 0.00 | 0.02 | 0.02 | 44 | 1003.5 |
| 20260504200057 | 77 | 226 | 3.0 | 11.0 | 0.00 | 0.02 | 0.02 | 43 | 1003.5 |
| 20260504194510 | 78 | 211 | 5.0 | 11.0 | 0.00 | 0.02 | 0.02 | 41 | 1003.3 |
| 20260504193049 | 77 | 195 | 5.0 | 13.0 | 0.00 | 0.02 | 0.02 | 42 | 1003.5 |
| 20260504191518 | 77 | 240 | 8.0 | 14.0 | 0.00 | 0.02 | 0.02 | 41 | 1003.7 |
| 20260504184529 | 77 | 200 | 7.0 | 13.0 | 0.00 | 0.02 | 0.02 | 41 | 1003.7 |
| 20260504183011 | 77 | 235 | 6.0 | 15.0 | 0.00 | 0.02 | 0.02 | 41 | 1003.8 |
| 20260504181557 | 77 | 235 | 5.0 | 12.0 | 0.00 | 0.02 | 0.02 | 42 | 1004.1 |
| 20260504180040 | 77 | 194 | 4.0 | 11.0 | 0.00 | 0.02 | 0.02 | 42 | 1004.1 |
| 20260504174511 | 77 | 193 | 3.0 | 9.0 | 0.00 | 0.02 | 0.02 | 43 | 1004.3 |
| 20260504173046 | 77 | 237 | 5.0 | 12.0 | 0.00 | 0.02 | 0.02 | 42 | 1004.3 |
| 20260504171521 | 76 | 211 | 3.0 | 11.0 | 0.00 | 0.02 | 0.02 | 45 | 1004.7 |